When you browse on this site, cookies collect data to enhance your experience and personalize the content and advertising you see.
Visit our Privacy Policy to learn more. By continuing to use the site, you agree to this use of cookies and data.
  • en France
  • Liste des pays
  • À 7 jours
  • Température de l'eau
  • Carte météo
  • Widgets météo
  • user-avatar
    Se connecter

    Météo par heure à Solncevo

    Ce jour, 20 Octobre, Dimanche

    Heure Température Précipitation Vent Pression Humidité
    00:00 +12°C° 0 mm 2 m/s 751 mmHg 85%
    01:00 +10°C° 0 mm 2 m/s 751 mmHg 86%
    02:00 +10°C° 0 mm 2 m/s 751 mmHg 86%
    03:00 +10°C° 0 mm 2 m/s 751 mmHg 87%
    04:00 +10°C° 0 mm 2 m/s 751 mmHg 89%
    05:00 +10°C° 0 mm 2 m/s 751 mmHg 90%
    06:00 +10°C° 0 mm 2 m/s 751 mmHg 89%
    07:00 +11°C° 0 mm 3 m/s 751 mmHg 88%
    08:00 +12°C° 0 mm 3 m/s 751 mmHg 87%
    09:00 +13°C° 0 mm 3 m/s 751 mmHg 82%
    10:00 +14°C° 0 mm 3 m/s 751 mmHg 77%
    11:00 +16°C° 0 mm 3 m/s 751 mmHg 72%
    12:00 +17°C° 0 mm 4 m/s 751 mmHg 69%
    13:00 +17°C° 0 mm 4 m/s 751 mmHg 66%
    14:00 +18°C° 0 mm 4 m/s 751 mmHg 63%
    15:00 +17°C° 0 mm 3 m/s 751 mmHg 69%
    16:00 +14°C° 0 mm 3 m/s 751 mmHg 75%
    17:00 +13°C° 0 mm 3 m/s 751 mmHg 81%
    18:00 +13°C° 0 mm 3 m/s 751 mmHg 82%
    19:00 +12°C° 0 mm 3 m/s 751 mmHg 83%
    20:00 +12°C° 0 mm 3 m/s 751 mmHg 85%
    21:00 +12°C° 0 mm 3 m/s 751 mmHg 84%
    22:00 +12°C° 0 mm 3 m/s 751 mmHg 84%
    23:00 +11°C° 0 mm 3 m/s 751 mmHg 84%

    Demain, 21 Octobre, Lundi

    Heure Température Précipitation Vent Pression Humidité
    00:00 +11°C° 0 mm 3 m/s 751 mmHg 84%
    01:00 +11°C° 0 mm 3 m/s 751 mmHg 84%
    02:00 +10°C° 0 mm 3 m/s 751 mmHg 85%
    03:00 +10°C° 0 mm 3 m/s 751 mmHg 84%
    04:00 +10°C° 0 mm 3 m/s 751 mmHg 84%
    05:00 +9°C° 0 mm 3 m/s 751 mmHg 83%
    06:00 +10°C° 0 mm 4 m/s 751 mmHg 80%
    07:00 +11°C° 0 mm 4 m/s 751 mmHg 77%
    08:00 +11°C° 0 mm 4 m/s 751 mmHg 73%
    09:00 +13°C° 0 mm 4 m/s 751 mmHg 70%
    10:00 +14°C° 0 mm 5 m/s 751 mmHg 66%
    11:00 +15°C° 0 mm 5 m/s 751 mmHg 63%
    12:00 +16°C° 0 mm 5 m/s 751 mmHg 63%
    13:00 +17°C° 0 mm 4 m/s 751 mmHg 64%
    14:00 +17°C° 0 mm 4 m/s 750 mmHg 64%
    15:00 +15°C° 0 mm 4 m/s 750 mmHg 69%
    16:00 +14°C° 0 mm 3 m/s 750 mmHg 74%
    17:00 +13°C° 0 mm 3 m/s 750 mmHg 78%
    18:00 +13°C° 0 mm 3 m/s 750 mmHg 81%
    19:00 +12°C° 0 mm 3 m/s 750 mmHg 83%
    20:00 +12°C° 0 mm 3 m/s 750 mmHg 86%
    21:00 +12°C° 0 mm 3 m/s 750 mmHg 87%
    22:00 +12°C° 0 mm 2 m/s 750 mmHg 89%
    23:00 +12°C° 0 mm 2 m/s 750 mmHg 91%

    Après-demain, 22 Octobre, Mardi

    Heure Température Précipitation Vent Pression Humidité
    00:00 +12°C° 0 mm 2 m/s 750 mmHg 91%
    01:00 +12°C° 0 mm 2 m/s 751 mmHg 92%
    02:00 +12°C° 0 mm 1 m/s 751 mmHg 93%
    03:00 +12°C° 0 mm 1 m/s 751 mmHg 94%
    04:00 +11°C° 0 mm 1 m/s 751 mmHg 94%
    05:00 +11°C° 0 mm 1 m/s 751 mmHg 94%
    06:00 +12°C° 0 mm 1 m/s 751 mmHg 94%
    07:00 +12°C° 0 mm 1 m/s 751 mmHg 93%
    08:00 +13°C° 0 mm 1 m/s 752 mmHg 92%
    09:00 +14°C° 0 mm 1 m/s 752 mmHg 87%
    10:00 +15°C° 0 mm 1 m/s 752 mmHg 83%
    11:00 +16°C° 0 mm 1 m/s 752 mmHg 79%
    12:00 +16°C° 0 mm 1 m/s 752 mmHg 77%
    13:00 +16°C° 0 mm 1 m/s 752 mmHg 76%
    14:00 +18°C° 0 mm 1 m/s 752 mmHg 75%
    15:00 +16°C° 0 mm 1 m/s 752 mmHg 77%
    16:00 +15°C° 0 mm 1 m/s 752 mmHg 80%
    17:00 +15°C° 0 mm 1 m/s 752 mmHg 83%
    18:00 +14°C° 0 mm 1 m/s 752 mmHg 84%
    19:00 +14°C° 0 mm 1 m/s 752 mmHg 86%
    20:00 +14°C° 0 mm 1 m/s 752 mmHg 87%
    21:00 +13°C° 0 mm 1 m/s 752 mmHg 89%
    22:00 +13°C° 0 mm 1 m/s 752 mmHg 90%
    23:00 +13°C° 0 mm 2 m/s 751 mmHg 92%

    23 Octobre, Mercredi

    Heure Température Précipitation Vent Pression Humidité
    00:00 +12°C° 0 mm 2 m/s 751 mmHg 93%
    01:00 +12°C° 0 mm 2 m/s 751 mmHg 94%
    02:00 +12°C° 0 mm 2 m/s 751 mmHg 94%
    03:00 +11°C° 0 mm 3 m/s 751 mmHg 94%
    04:00 +11°C° 0 mm 3 m/s 750 mmHg 94%
    05:00 +10°C° 0 mm 3 m/s 750 mmHg 94%
    06:00 +11°C° 0 mm 3 m/s 750 mmHg 92%
    07:00 +11°C° 0 mm 3 m/s 750 mmHg 89%
    08:00 +12°C° 0 mm 3 m/s 750 mmHg 87%
    09:00 +13°C° 0 mm 3 m/s 749 mmHg 81%
    10:00 +14°C° 0 mm 4 m/s 749 mmHg 75%
    11:00 +17°C° 0 mm 4 m/s 749 mmHg 69%
    12:00 +17°C° 0 mm 4 m/s 748 mmHg 66%
    13:00 +18°C° 0 mm 4 m/s 748 mmHg 63%
    14:00 +18°C° 0 mm 4 m/s 748 mmHg 60%
    15:00 +17°C° 0 mm 4 m/s 747 mmHg 65%
    16:00 +15°C° 0 mm 4 m/s 747 mmHg 70%
    17:00 +14°C° 0 mm 3 m/s 747 mmHg 75%
    18:00 +14°C° 0 mm 3 m/s 747 mmHg 77%
    19:00 +13°C° 0 mm 3 m/s 747 mmHg 79%
    20:00 +14°C° 0 mm 2 m/s 747 mmHg 81%
    21:00 +13°C° 0 mm 2 m/s 747 mmHg 84%
    22:00 +13°C° 0 mm 2 m/s 747 mmHg 87%
    23:00 +13°C° 0 mm 1 m/s 747 mmHg 91%

    24 Octobre, Jeudi

    Heure Température Précipitation Vent Pression Humidité
    00:00 +13°C° 0.4 mm 1 m/s 747 mmHg 92%
    01:00 +13°C° 0.4 mm 2 m/s 747 mmHg 94%
    02:00 +13°C° 0.4 mm 2 m/s 747 mmHg 96%
    03:00 +13°C° 0.5 mm 2 m/s 747 mmHg 96%
    04:00 +13°C° 0.5 mm 2 m/s 747 mmHg 97%
    05:00 +13°C° 0.5 mm 2 m/s 747 mmHg 97%
    06:00 +13°C° 0.2 mm 2 m/s 747 mmHg 96%
    07:00 +12°C° 0.2 mm 3 m/s 747 mmHg 95%
    08:00 +11°C° 0.2 mm 3 m/s 747 mmHg 94%
    09:00 +11°C° 0 mm 3 m/s 748 mmHg 92%
    10:00 +11°C° 0 mm 3 m/s 748 mmHg 90%
    11:00 +12°C° 0 mm 3 m/s 748 mmHg 88%
    12:00 +12°C° 0 mm 3 m/s 748 mmHg 86%
    13:00 +12°C° 0 mm 3 m/s 748 mmHg 84%
    14:00 +13°C° 0 mm 3 m/s 748 mmHg 83%
    15:00 +12°C° 0 mm 3 m/s 748 mmHg 84%
    16:00 +13°C° 0 mm 2 m/s 748 mmHg 86%
    17:00 +13°C° 0 mm 2 m/s 748 mmHg 88%
    18:00 +12°C° 0 mm 2 m/s 749 mmHg 89%
    19:00 +12°C° 0 mm 2 m/s 749 mmHg 90%
    20:00 +12°C° 0 mm 2 m/s 749 mmHg 90%
    21:00 +10°C° 0 mm 2 m/s 749 mmHg 91%
    22:00 +10°C° 0 mm 2 m/s 749 mmHg 91%
    23:00 +10°C° 0 mm 2 m/s 749 mmHg 92%

    25 Octobre, Vendredi

    Heure Température Précipitation Vent Pression Humidité
    00:00 +9°C° 0 mm 2 m/s 750 mmHg 93%
    01:00 +9°C° 0 mm 2 m/s 750 mmHg 93%
    02:00 +10°C° 0 mm 1 m/s 750 mmHg 94%
    03:00 +10°C° 0 mm 1 m/s 750 mmHg 94%
    04:00 +10°C° 0 mm 1 m/s 750 mmHg 93%
    05:00 +10°C° 0 mm 1 m/s 750 mmHg 93%
    06:00 +10°C° 0 mm 1 m/s 750 mmHg 92%
    07:00 +11°C° 0 mm 1 m/s 750 mmHg 91%
    08:00 +11°C° 0 mm 1 m/s 750 mmHg 90%
    09:00 +12°C° 0 mm 1 m/s 751 mmHg 87%
    10:00 +13°C° 0 mm 2 m/s 751 mmHg 84%
    11:00 +14°C° 0 mm 2 m/s 751 mmHg 82%
    12:00 +14°C° 0 mm 2 m/s 751 mmHg 80%
    13:00 +14°C° 0 mm 1 m/s 751 mmHg 79%
    14:00 +15°C° 0 mm 1 m/s 751 mmHg 77%
    15:00 +14°C° 0 mm 1 m/s 750 mmHg 80%
    16:00 +14°C° 0 mm 1 m/s 750 mmHg 82%
    17:00 +13°C° 0 mm 1 m/s 750 mmHg 84%
    18:00 +12°C° 0 mm 1 m/s 750 mmHg 86%
    19:00 +12°C° 0 mm 1 m/s 750 mmHg 87%
    20:00 +11°C° 0 mm 1 m/s 751 mmHg 89%
    21:00 +11°C° 0 mm 1 m/s 751 mmHg 89%
    22:00 +11°C° 0 mm 1 m/s 751 mmHg 90%
    23:00 +11°C° 0 mm 1 m/s 751 mmHg 91%
    Voir plus